Home   Weather   Belfast   Past weeks

Flag for United Kingdom Past Weather in Belfast, Northern Ireland, United Kingdom — Yesterday and Last 2 Weeks

Now
59 °F

Light rain. Passing clouds.


Feels Like: 55 °F
Forecast: 47 / 60 °F
Wind: 21 mph from Southwest

Location: Belfast / Harbour

Current Time: Sep 26, 2018 at 4:03:27 am

Latest Report: Sep 26, 2018 at 3:20 am


Visibility: N/A

Pressure: 30.24 "Hg

Humidity: 88%

Dew Point: 55 °F

Location of BelfastLocation

Past Weather in Belfast — Graph

°F

Belfast Temperature Yesterday

Maximum temperature yesterday: 59 °F (at 3:50 pm)
Minimum temperature yesterday: 45 °F (at 1:20 am)
Average temperature yesterday: 53 °F

High & Low Weather Summary for the Past Weeks

 TemperatureHumidityPressure
High66 °F (Sep 18, 5:20 pm)100% (Sep 18, 4:20 am)30.66 "Hg (Sep 18, 4:20 am)
Low41 °F (Sep 23, 7:20 am)51% (Sep 22, 3:20 pm)29.12 "Hg (Sep 19, 9:50 am)
Average54 °F79%29.94 "Hg
* Reported Sep 11 2:20 am — Sep 26 2:50 am, Belfast. Weather by CustomWeather, © 2018

Note: Actual official high and low records may vary slightly from our data, if they occured in-between our weather recording intervals... More about our weather records

Advertising

Belfast Weather History for the Previous 24 Hours

Scroll right to see more
 ConditionsComfort  
Time TempWeatherWind HumidityBarometerVisibility
2:50 am
Wed, Sep 26
57 °FPassing clouds.20 mph94%30.24 "HgN/A
2:20 am57 °FLight rain. Passing clouds.20 mph94%30.24 "HgN/A
1:50 am57 °FOvercast.21 mph88%30.24 "HgN/A
1:20 am57 °FPassing clouds.20 mph88%30.24 "HgN/A
12:50 am57 °FPassing clouds.21 mph82%30.24 "HgN/A
12:20 am57 °FLight rain. Partly cloudy.20 mph82%30.27 "HgN/A
11:50 pm
Tue, Sep 25
57 °FPassing clouds.21 mph82%30.27 "HgN/A
11:20 pm57 °FPassing clouds.20 mph82%30.27 "HgN/A
10:50 pm57 °FOvercast.18 mph82%30.27 "HgN/A
10:20 pm57 °FPassing clouds.14 mph82%30.27 "HgN/A
9:50 pm57 °FPassing clouds.16 mph82%30.27 "HgN/A
9:20 pm57 °FPassing clouds.16 mph82%30.27 "HgN/A
8:50 pm57 °FPassing clouds.17 mph77%30.30 "HgN/A
8:20 pm57 °FPassing clouds.17 mph77%30.30 "HgN/A
7:50 pm57 °FPassing clouds.14 mph77%30.30 "HgN/A
7:20 pm57 °FPassing clouds.16 mph77%30.30 "HgN/A
6:50 pm57 °FPartly sunny.16 mph77%30.30 "HgN/A
6:20 pm57 °FMostly cloudy.14 mph77%30.30 "HgN/A
5:50 pm57 °FLight rain. Partly sunny.18 mph82%30.30 "HgN/A
5:20 pm57 °FHeavy rain. Partly sunny.17 mph77%30.33 "Hg1 mi
4:50 pm59 °FScattered clouds.18 mph72%30.33 "HgN/A
4:20 pm59 °FScattered clouds.22 mph68%30.33 "HgN/A
3:50 pm59 °FPartly sunny.21 mph68%30.33 "HgN/A
3:20 pm57 °FMostly cloudy.22 mph72%30.36 "HgN/A
2:50 pm57 °FPartly sunny.20 mph72%30.36 "HgN/A
2:20 pm55 °FScattered clouds.17 mph72%30.39 "HgN/A
1:50 pm55 °FPartly sunny.20 mph72%30.39 "HgN/A
1:20 pm55 °FPartly sunny.20 mph72%30.39 "HgN/A
12:50 pm55 °FCool.21 mph72%30.42 "HgN/A
12:20 pm55 °FCool.20 mph67%30.42 "HgN/A
11:50 am54 °FCool.20 mph72%30.42 "HgN/A
11:20 am54 °FCool.20 mph72%30.45 "HgN/A
10:50 am54 °FCool.20 mph67%30.45 "HgN/A
10:20 am52 °FCool.17 mph72%30.45 "HgN/A
9:50 am52 °FCool.18 mph72%30.48 "HgN/A
9:20 am52 °FCool.16 mph72%30.48 "HgN/A
8:50 am50 °FCool.14 mph76%30.48 "HgN/A
8:20 am50 °FCool.12 mph76%30.48 "HgN/A
7:50 am48 °FCool.10 mph76%30.51 "HgN/A
7:20 am46 °FCool.6 mph82%30.51 "HgN/A
6:50 am46 °FCool.6 mph82%30.51 "HgN/A
6:20 am46 °FCool.6 mph82%30.54 "HgN/A
5:50 am46 °FCool.8 mph82%30.54 "HgN/A
5:20 am46 °FCool.9 mph76%30.54 "HgN/A
4:50 am46 °FCool.7 mph76%30.54 "HgN/A
4:20 am46 °FCool.7 mph76%30.54 "HgN/A
Weather by CustomWeather, © 2018

See weather overview